Regional Weather Roundup
Issued by NWS

Home | Current Version | Previous Version | Text Only | Print | Product List | Glossary Off
Versions: 1 2 3 4 5 6 7 8 9 10 11 12 13 14 15 16 17 18 19 20 21 22 23 24 25 26 27 28 29 30 31 32 33 34 35 36 37 38 39 40 41 42 43 44 45 46 47 48 49 50

000
ASUS45 KBOU 021707
RWRCO

WEATHER ROUNDUP FOR COLORADO
NATIONAL WEATHER SERVICE DENVER/BOULDER CO
1000 AM MST MON MAR 02 2015

NOTE: "FAIR" INDICATES FEW OR NO CLOUDS BELOW 12000 FEET WITH NO
SIGNIFICANT WEATHER AND/OR OBSTRUCTIONS TO VISIBILITY.

COZ001>005-013-030-031-021800-
...NORTHWEST COLORADO...

CITY           SKY/WX    TMP DP  RH WIND       PRES   REMARKS
CRAIG          CLOUDY    35  32  88 NE5       29.82F WCI  31
HAYDEN         CLOUDY    32  28  86 CALM      29.82F
MEEKER         LGT RAIN  40  35  83 SE5       29.80F
MOUNT WERNER   NOT AVBL
STEAMBOAT SPGS CLOUDY    31  28  88 CALM      29.83F
WALDEN         CLOUDY    34  28  80 S12       29.82F WCI  25
$$

COZ006>008-011-021800-
...WEST CENTRAL VALLEYS...

CITY           SKY/WX    TMP DP  RH WIND       PRES   REMARKS
GRAND JUNCTION CLOUDY    39  38  96 NE6       29.80F
MONTROSE       CLOUDY    44  30  57 VRB3      29.85F
EAGLE          CLOUDY    36  34  93 CALM      29.89F
RIFLE          LGT RAIN  34  32  92 CALM      29.83F
DELTA          CLOUDY    50  40  68 N9        29.84F
NUCLA          CLOUDY    48  34  57 S17G24    29.88F
$$

COZ017>023-064>068-021800-
...SOUTHWEST COLORADO...

CITY           SKY/WX    TMP DP  RH WIND       PRES   REMARKS
DURANGO        CLOUDY    37  33  85 E7        29.99F
CORTEZ         SUNNY     49  35  58 SE22G31   29.89F
PAGOSA SPRINGS CLOUDY    38  37  94 NE3       30.03F
TELLURIDE      CLOUDY    39  26  59 SE23G31   29.94F
WOLF CREEK PAS CLOUDY    21  21 100 SW16G26   30.09F WCI   7
$$

COZ009-010-012-014-032>034-037-058>063-021800-
...CENTRAL COLORADO...

CITY           SKY/WX    TMP DP  RH WIND       PRES   REMARKS
ASPEN          PTSUNNY   38  33  82 N5        29.85F
BUENA VISTA    PTSUNNY   35  25  69 E3        29.95F HAZE
COPPER MTN     CLOUDY    30  21  69 S16G23    29.97S WCI  19
BERTHOUD PASS  PTSUNNY   23  18  80 SW16G33   29.97F HAZE    WCI  10
COTTONWOOD PAS FOG       32  30  93 CALM      29.96S VSB 3/4
GUNNISON       CLOUDY    27  23  86 CALM      29.99F
KREMMLING      PTSUNNY   34  27  75 CALM      29.88F
LEADVILLE      CLOUDY    27  23  85 SW6       29.93S WCI  20
SALIDA         PTSUNNY   38  26  61 NE3       30.01F
SUNLIGHT       LGT SNOW  30  30 100 S5          N/A  WCI  25
WILKERSON PASS SUNNY     28  27  93 S10G21    29.99F FOG     WCI  19
$$

COZ069>075-021800-
...SAN LUIS VALLEY/SANGRE DE CRISTO MOUNTAINS...

CITY           SKY/WX    TMP DP  RH WIND       PRES   REMARKS
ALAMOSA        PTSUNNY   39  28  64 S13       30.01S
LA VETA PASS   CLOUDY    32  25  74 S9G20     30.05F WCI  24
SAGUACHE       MOSUNNY   37  30  75 SE10      30.01F
$$

COZ035-036-038>040-021800-
...NORTHERN COLORADO FRONT RANGE...

CITY           SKY/WX    TMP DP  RH WIND       PRES   REMARKS
DENVER INTL AP MOSUNNY   24  19  81 CALM      29.91F HAZE
DMNS CITY PARK   N/A     31  17  56 NE3       29.91F
AURORA         MOSUNNY   23  17  78 CALM      29.90F
FRONT RANGE AP PTSUNNY   25  19  80 SW3       29.92F FOG
ERIE MUNI ARPT CLOUDY    25  20  81 CALM      29.92F HAZE
BOULDER MUN AP SUNNY     28  19  69 NE3       29.91F HAZE
CENTENNIAL     MOSUNNY   24  16  71 E3        29.89F FOG
BROOMFIELD     PTSUNNY   23  19  86 CALM      29.91F FOG
FORT COLLINS   SUNNY     27  19  74 N7        29.92F WCI  19
LONGMONT       SUNNY     37  20  51 CALM      29.94F
$$

COZ041-046-047-076>085-087-088-021800-
...PIKES PEAK/PALMER DIVIDE AND SOUTHERN FOOTHILLS...

CITY           SKY/WX    TMP DP  RH WIND       PRES   REMARKS
COLO. SPRINGS  CLOUDY    21  19  92 S6        29.97F FOG     WCI  13
A. F. ACADEMY  CLOUDY    23  17  80 S8        29.93F WCI  13
ELLICOTT       NOT AVBL
FALCON         FOG       24  23  95 S10       29.95F VSB<1/4 WCI  13
FORT CARSON    PTSUNNY   23  19  86 S8        29.95F WCI  14
LIMON          LGT SNOW  23  21  92 S23G31    29.97F VSB 1   WCI   7
MONUMENT HILL  SUNNY     34  21  60 S21       29.86F WCI  22
TRINIDAD       FOG       27  25  92 E6        29.98F VSB 1/2 WCI  20
$$

COZ042>045-048>051-090-091-021800-
...NORTHEAST COLORADO...

CITY           SKY/WX    TMP DP  RH WIND       PRES   REMARKS
GREELEY ARPT   SUNNY     30  18  59 SW5       29.93F WCI  25
AKRON          CLOUDY    28  21  75 S20G28    29.97F WCI  15
BURLINGTON     CLOUDY    26  22  84 S28       30.06F WCI  10
WRAY           CLOUDY    30  23  75 S15G24    30.08F WCI  19
STERLING       CLOUDY    32  23  69 S18G24    30.00F WCI  20
HOLYOKE        NOT AVBL
FORT MORGAN    SUNNY     34  21  59 S16G22    29.96F WCI  23
$$

COZ086-089-092>099-021800-
...SOUTHEAST COLORADO...

CITY           SKY/WX    TMP DP  RH WIND       PRES   REMARKS
PUEBLO         CLOUDY    26  23  88 CALM      30.01F FOG
LA JUNTA       CLOUDY    33  26  75 VRB3      30.04F
LAMAR          CLOUDY    30  25  81 S14       30.06F HAZE    WCI  19
SPRINGFIELD      N/A     28  24  85 S22G29    30.07F WCI  14
$$



USA.gov is the U.S. government's official web portal to all federal, state and local government web resources and services.